Find Starlink 6326

NORAD ID: 56787 Int'l Des: 2023-078 Owner: SPXS Country: US Constellation: starlink operational
LEOCIRCULAR

实时位置

正在加载3D地球...

关于 Starlink 6326

正在加载描述...

即将过境

Passes for default location (London). Set your location on the main map for personalized predictions.

高度历史

Loading altitude history...

两行轨道根数

1 56787U 23078W 26125.55415808 -.00000253 00000-0 -13393-4 0 9990
2 56787 69.9999 180.9879 0003214 270.1201 89.9589 14.98329276161693
Epoch: May 5, 2026 • Age: 15 hours

当前状态

高度 579.2 km
速度 7.57 km/s
星下点 42.16°N, 51.45°E
发射日期 May 31, 2023
运行时间 2.9 years
类型 internet

技术详情

分类 Payload
质量 305.00 kg
干质量 290.00 kg
总质量 305.00 kg
长度 0.20 m
直径 2.80 m
跨度 9.00 m
形状 Box + pan
制造商 SPXS
平台类型 Starlink
阶段状态 In Orbit
所有者/国家 SPXS/US

Most Searched